This is the latest recevied weather packets stored in our database for station/object KD4UFD. If no packets are shown the sender has not sent any weather packets the latest 10 day(s).
| Time | Temp. | Humidity | Pressure | Rain* | Wind** | Luminosity | Snow |
|---|---|---|---|---|---|---|---|
| 1777979966 | 9.44° C | 93% | 1014 hPa | 0 mm | - | 23 W/m² | - |
| 1777979661 | 9.44° C | 92% | 1013.7 hPa | 0 mm | - | 20 W/m² | - |
| 1777979357 | 8.89° C | 92% | 1013.8 hPa | 0 mm | - | 19 W/m² | - |
| 1777979054 | 8.89° C | 92% | 1013.6 hPa | 0 mm | - | 17 W/m² | - |
| 1777978751 | 8.89° C | 92% | 1013.6 hPa | 0 mm | - | 12 W/m² | - |
| 1777978448 | 8.89° C | 92% | 1013.3 hPa | 0 mm | - | 8 W/m² | - |
| 1777978144 | 8.89° C | 91% | 1013.3 hPa | 0 mm | - | 5 W/m² | - |
| 1777977841 | 9.44° C | 91% | 1013.5 hPa | 0 mm | - | 3 W/m² | - |
| 1777977537 | 8.89° C | 91% | 1013.5 hPa | 0 mm | - | 0 W/m² | - |
| 1777977235 | 8.89° C | 91% | 1013.3 hPa | 0 mm | - | 0 W/m² | - |
| 1777976932 | 8.89° C | 91% | 1013.5 hPa | 0 mm | - | 0 W/m² | - |
| 1777976629 | 8.89° C | 90% | 1013.5 hPa | 0 mm | - | 0 W/m² | - |
| 1777976325 | 9.44° C | 90% | 1013.8 hPa | 0 mm | - | 0 W/m² | - |
| 1777976020 | 9.44° C | 90% | 1013.6 hPa | 0 mm | - | 0 W/m² | - |
| 1777975716 | 9.44° C | 90% | 1013.6 hPa | 0 mm | - | 0 W/m² | - |
| 1777975413 | 10° C | 89% | 1013.3 hPa | 0 mm | - | 0 W/m² | - |
| 1777975108 | 10° C | 89% | 1013.6 hPa | 0 mm | - | 0 W/m² | - |
| 1777974806 | 10° C | 88% | 1013.7 hPa | 0 mm | - | 0 W/m² | - |
| 1777974502 | 10.56° C | 88% | 1013.3 hPa | 0 mm | - | 0 W/m² | - |
| 1777974199 | 10.56° C | 88% | 1013.7 hPa | 0 mm | - | 0 W/m² | - |
| 1777973894 | 10.56° C | 88% | 1013.7 hPa | 0 mm | - | 0 W/m² | - |
| 1777973593 | 10.56° C | 87% | 1013.8 hPa | 0 mm | - | 0 W/m² | - |
| 1777973289 | 10.56° C | 86% | 1013.8 hPa | 0 mm | - | 0 W/m² | - |
| 1777972988 | 11.11° C | 86% | 1013.8 hPa | 0 mm | - | 0 W/m² | - |
| 1777972684 | 11.11° C | 86% | 1013.8 hPa | 0 mm | - | 0 W/m² | - |
* Rain latest hour (hover to see other rain measurements)
** Current wind speed in m/s (hover to see current wind gust speed)